{"data":{"norad_id":67424,"epoch":"2026-05-25T01:04:37.898976Z","epoch_age_seconds":74272,"freshness":"FRESH","line1":"1 67424U 26005W   26145.04488309  .00013344  00000+0  49335-3 0  9991","line2":"2 67424  43.0010 166.8018 0000932 279.5747  80.4999 15.27593509 20375","mean_motion":15.27593509,"eccentricity":9.32e-5,"inclination_deg":43.001,"raan_deg":166.8018,"arg_perigee_deg":279.5747,"mean_anomaly_deg":80.4999,"bstar":0.00049335,"rev_number":2037,"period_min":94.265915082518,"perigee_km":482.36918675775,"apogee_km":483.64810430608,"semimajor_km":6861.1456455319,"source":"CELESTRAK","updated_at":"2026-05-25T13:38:21.556782Z"}}